STARLINK-33699, 63328

Orbit data source: Space-Track

STARLINK-33699, 63328 is a payload satellite owned by SpaceX/Seattle (US) in LEO that was launched on Tue, 18 Mar 2025 UTC via an FALCON 9 launch vehicle from the Air Force Eastern Test Range (AFETR). Payload-class satellites include a variety of spacecraft equipped with specific instruments for various scientific and technological missions. These include communications satellites like Starlink; space stations such as the ISS; scientific satellites like the Hubble; Earth observation satellites from companies like Planet Labs, Umbra, and HawkEye 360; GPS; miniature CubeSats for education and research; and military/defense satellites.

Loading next visibility...
Identifier
63328, 2025-057X
Orbit
LEO
Country
Flag of USUS
Related business
Manufacturer
SpaceX/Seattle
Mission
Operational Commercial Communications
Bus & Motor
STARLINK V2MO, Unknown motor
Mass
575 kg wet, ~530 kg dry
Launch date (UTC)
2025-03-18 (1 year ago)
Launch vehicle
FALCON 9
Launch site
Air Force Eastern Test Range (AFETR)
Object type
Payload
Rocket body
Debris
Shape & HBR
Box + 2 Pan, 17.7 m
Radar Cross Section
36.964 m², Large (>1 m²)

Expand to show TLE details & history
Last TLE update: 19 hours ago

TLE from 19 hours ago
0 STARLINK-33699
1 63328U 25057X   26171.06203086  .00005822  00000-0  22089-3 0  9994
2 63328  42.9996 164.9394 0001696 275.5452  84.5206 15.27584636 71483
Epoch: 2026-06-20T01:29Z
TLE epoch observation values (Epoch: 2026-06-20T01:29:19.466Z)
Latitude
-0.00002°
Longitude
-125.67379°
Altitude
482.7 km
Speed
7.626 km/s
True Right ascension
10h 59m 45s
True Declination
0° 00' 00"
Sunlit
Object was in daylight at epoch
Visualization orbit readout
Latitude
Unknown
Longitude
Unknown
Altitude
Unknown
Speed
Unknown
Apparent Right ascension
Unknown
Apparent Declination
Unknown
Sunlit
N/A
Visualization observer readout
Local Sidereal Time
07:24:05
Azimuth
Unknown
Elevation
Unknown
Doppler factor
Unknown
Orbital elements
Apogee altitude
486.144 km
Perigee altitude
483.816 km
Semi-major axis
6,863.117 km
Eccentricity
0.00017
Inclination
42.9996°
RAAN
164.9394°
Arg. of periapsis
275.5452°
True anomaly
84.53995°
Mean anomaly
84.5206°
Eccentric anomaly
84.53027°
Mean motion
3.81734 °/min
Orbital period
94.31 mins
BSTAR
0.00022089
Loading maneuver chart data...
Computing Atmospheric mass density...
Loading historical data...
Loading historical data...
Loading historical data...
Loading historical data...
Loading historical data...
Loading historical data...
Loading historical data...

Documentation

Showing up to 5 results
|